Regional Weather Roundup
Issued by NWS

Home | Current Version | Previous Version | Graphics & Text | Print | Product List | Glossary On
Versions: 1 2 3 4 5 6 7 8 9 10 11 12 13 14 15 16 17 18 19 20 21 22 23 24 25 26 27 28 29 30 31 32 33 34 35 36 37 38 39 40 41 42 43 44 45 46 47 48
000
ASUS43 KDMX 291407
RWRIA

WEATHER ROUNDUP FOR IOWA
NATIONAL WEATHER SERVICE DES MOINES IA
900 AM CDT FRI MAY 29 2015

NOTE: "FAIR" INDICATES FEW OR NO CLOUDS BELOW 12,000 FEET WITH NO
SIGNIFICANT WEATHER AND/OR OBSTRUCTIONS TO VISIBILITY.

* - THESE STATIONS ARE NOT NWS STATIONS...THUS NOT UNDER NWS
QUALITY CONTROL.  THEY ALSO DO NOT REPORT WEATHER SUCH
AS PRECIPITATION OR FOG.

IAZ001>003-012>014-020>022-031>034-043>046-291500-
   NORTHWEST IOWA

CITY           SKY/WX    TMP DP  RH WIND       PRES   REMARKS
CARROLL *      PTSUNNY   68  64  88 SW21      29.91R
CHEROKEE *     CLOUDY    66  64  94 S8        29.91S
DENISON *      CLOUDY    66  66 100 SW13G20   29.91R
LE MARS *      PTSUNNY   66  64  94 S10       29.89S FOG
ORANGE CITY *  LGT RAIN  64  63  94 S13       29.90R
SHELDON *      CLOUDY    64  64 100 S12       29.89R FOG
SIOUX CITY     CLOUDY    66  62  87 S9        29.90R
SPENCER        CLOUDY    66  64  93 S14       29.91S FOG
STORM LAKE *   PTSUNNY   64  64 100 SW10      29.93S FOG
$$

IAZ055>058-069>071-079>083-090>094-291500-
   SOUTHWEST IOWA

CITY           SKY/WX    TMP DP  RH WIND       PRES   REMARKS
ATLANTIC *     HVY RAIN  64  64 100 S15       29.96R VSB 3/4
AUDUBON *      LGT RAIN  64  63  94 S14       29.95R
CLARINDA *     CLOUDY    66  66 100 S5        29.97S
COUNCIL BLFS * CLOUDY    66  66 100 S6        29.94R
CRESTON *      PTSUNNY   66  66 100 SW9G15    29.96R
HARLAN  *      CLOUDY    64  64 100 S12       29.97R FOG
LAMONI         CLOUDY    69  65  86 S7        29.96F
RED OAK *      CLOUDY    66  66 100 S5        29.94F
SHENANDOAH *   CLOUDY    66  66 100 S7        29.94F
$$

IAZ047>049-059>061-072>074-084-291500-
   CENTRAL IOWA

CITY           SKY/WX    TMP DP  RH WIND       PRES   REMARKS
AMES           PTSUNNY   69  64  84 S10       29.94R
ANKENY *       MOSUNNY   70  64  83 SW9       29.94R
CHARITON *     SUNNY     68  64  88 S13       29.97R
DES MOINES     CLOUDY    68  63  84 SW12      29.95R
GRINNELL*      PTSUNNY   68  64  88 S6        29.96S
KNOXVILLE *    SUNNY     70  64  83 S6        29.94R
MARSHALLTOWN   PTSUNNY   70  63  78 S9        29.94S
PELLA *        PTSUNNY   70  68  94 S7        29.96S
PERRY *        PTSUNNY   66  64  94 S12       29.93F
$$

IAZ004>006-015-016-023>025-035-036-291500-
   NORTH CENTRAL IOWA

CITY           SKY/WX    TMP DP  RH WIND       PRES   REMARKS
ALGONA *       PTSUNNY   66  66 100 S10       29.93F
CLARION *      CLOUDY    68  63  83 SW8       29.94R
ESTHERVILLE    CLOUDY    65  63  93 S16       29.90R
FORT DODGE *   CLOUDY    66  61  82 SW5       29.94R
MASON CITY     PTSUNNY   70  63  78 SW8       29.94R
FOREST CITY *  PTSUNNY   64  64 100 S8        29.93F
IOWA FALLS *     N/A     70  63  78 S10       29.94S
$$

IAZ007>011-017>019-026>030-037>042-050>054-066-291500-
   NORTHEAST IOWA

CITY           SKY/WX    TMP DP  RH WIND       PRES   REMARKS
CEDAR RAPIDS   CLOUDY    69  65  86 S7        29.96S
CHARLES CITY * MOSUNNY   68  66  94 S9        29.95F
CLINTON *      CLOUDY    73  64  73 S12       30.01S
DECORAH *      SUNNY     68  63  83 VRB6      29.95S
DUBUQUE        CLOUDY    67  63  87 S6        29.99R
MONTICELLO *   MOSUNNY   70  68  94 SE10      29.98R
OELWEIN *      SUNNY     68  64  88 S9        29.97S
WATERLOO       PTSUNNY   69  63  81 S6        29.94R
$$

IAZ064-065-067-068-078-291500-
   EAST CENTRAL IOWA

CITY           SKY/WX    TMP DP  RH WIND       PRES   REMARKS
DAVENPORT      CLOUDY    72  65  78 S10       29.99R
IOWA CITY      CLOUDY    71  66  84 SW9       29.98S
MT. PLEASANT * CLOUDY    70  68  94 SW8       29.98R
MUSCATINE *    CLOUDY    72  66  83 S8        29.97S
QUAD CITIES    LGT RAIN  73  65  75 S10       29.97S
$$

IAZ062-063-075>077-085>089-095>099-291500-
   SOUTHEAST IOWA

CITY           SKY/WX    TMP DP  RH WIND       PRES   REMARKS
BURLINGTON     CLOUDY    70  68  93 SW9       29.98R
FAIRFIELD *    CLOUDY    68  66  94 S6        29.97S
FORT MADISON * CLOUDY    68  66  94 SW8       29.99R
KEOKUK *       CLOUDY    68  68 100 SW9       29.98R
OSKALOOSA *      N/A     68  64  88 S8        29.97S
CENTERVILLE *  MOSUNNY   70  70 100 S8        29.99R
OTTUMWA        PTSUNNY   69  67  93 S8        29.96R
WASHINGTON *   CLOUDY    70  66  88 SW12      29.99S
$$

ABBREVIATIONS USED IN REMARKS
   TC - TEMPERATURES IN CELSIUS
  WCI - WIND CHILL INDEX
   HX - HEAT INDEX
  VSB - VISIBILITY
$$




USA.gov is the U.S. government's official web portal to all federal, state and local government web resources and services.